Powrót do katalogu

STARLINK-2178

AktywnyŁącznośćVLEO
NORAD 47760·PAYLOAD·🇺🇸 United States

Wystrzelony Mar 4, 2021 z Cape Canaveral Space Force Station

Loading…

Następne Przeloty (najbliższe 24 godziny)

TLE

ŚwieżeSource: CelesTrak SupGP

Epoka: Sep 14, 2026, 20:48 UTC

1 47760C 21017AQ  26257.86715278  .00053700  00000+0  17270-2 0  2571
2 47760  53.1597  56.3190 0001208  82.3553  80.9444 15.31672166    15

Śledź STARLINK-2178 w czasie rzeczywistym z AllMySat

Download on the App Store